Date,TemperatureHighF,TemperatureAvgF,TemperatureLowF,DewpointHighF,DewpointAvgF,DewpointLowF,HumidityHigh,HumidityAvg,HumidityLow,PressureMaxIn,PressureMinIn,WindSpeedMaxMPH,WindSpeedAvgMPH,GustSpeedMaxMPH,PrecipitationSumIn
2013-1-1,38.8,35.9,32.9,10.0,7.8,5.0,32,32,32,29.82,29.76,14,5,21,0.03
2013-1-24,20.1,16.3,10.4,-6.0,-6.0,-6.0,35,34,33,30.23,30.09,13,6,26,0.00
2013-1-25,26.8,18.4,11.1,0.0,-4.9,-6.0,35,34,33,30.36,30.05,13,4,26,0.00
2013-1-26,27.0,19.9,15.3,0.0,-4.9,-6.0,34,34,33,30.23,30.02,12,4,23,0.00
2013-1-27,30.6,21.5,14.7,3.0,-3.4,-6.0,35,33,32,30.47,30.23,14,5,25,0.00
2013-1-28,36.5,27.7,17.4,9.0,0.7,-6.0,34,33,31,30.50,30.00,6,1,14,0.04
2013-1-29,40.1,34.7,31.1,12.0,6.9,3.0,34,33,31,30.22,30.02,5,0,14,0.23
2013-1-30,59.2,49.1,36.3,27.0,19.6,9.0,33,31,29,30.19,29.60,23,9,35,0.04
2013-1-31,55.6,46.9,32.0,28.0,17.6,3.0,37,32,31,29.67,29.14,27,11,49,0.18
2013-2-1,35.4,29.4,23.0,7.0,1.8,-4.0,33,33,32,30.13,29.67,19,6,49,0.01
2013-2-2,32.2,26.1,20.1,3.0,-1.0,-6.0,34,33,32,30.31,30.07,12,4,20,0.00
2013-2-3,36.0,27.7,20.8,7.0,0.6,-6.0,34,33,32,30.07,29.72,10,2,20,0.00
2013-2-4,32.4,26.5,23.4,5.0,-0.5,-4.0,33,33,32,29.98,29.75,12,5,23,0.00
2013-2-5,28.9,25.7,23.7,1.0,-1.0,-2.0,34,33,33,30.09,29.93,9,2,23,0.00
2013-2-6,38.8,32.2,27.3,10.0,4.3,0.0,33,32,32,30.31,29.93,14,2,18,0.02
2013-2-7,30.6,25.8,21.9,3.0,-1.4,-4.0,33,33,32,30.57,30.31,11,3,18,0.00
2013-2-8,32.5,30.8,27.5,32.0,13.7,0.0,100,56,32,30.47,29.32,23,9,33,0.15
2013-2-9,29.7,20.5,15.3,9.0,-5.1,-6.0,43,33,33,30.16,29.31,19,7,34,0.00
2013-2-10,32.4,21.2,14.4,3.0,-4.0,-6.0,34,32,29,30.40,30.16,11,3,34,0.00
2013-2-11,43.7,34.6,18.7,43.0,13.8,-6.0,100,48,30,30.39,29.63,23,5,29,1.17
2013-2-12,44.2,36.7,30.7,19.0,9.0,3.0,40,33,31,29.91,29.63,14,4,29,0.01
2013-2-13,30.6,30.6,30.6,3.0,3.0,3.0,33,32,32,29.88,29.88,1,1,18,0.00
2013-2-14,30.6,30.6,30.6,3.0,3.0,3.0,32,32,32,29.88,29.88,1,1,2,0.00
2013-2-17,32.5,24.0,18.1,5.0,-2.5,-6.0,34,33,33,29.68,29.37,22,9,30,0.01
2013-2-18,31.8,23.4,16.0,3.0,-2.1,-6.0,34,33,32,30.20,29.68,16,8,30,0.00
2013-2-19,47.7,37.5,24.3,18.0,9.3,-2.0,36,32,31,30.22,29.63,16,3,27,0.71
2013-2-20,41.9,33.3,25.0,14.0,5.6,-2.0,33,32,32,29.84,29.61,0,0,24,0.01
2013-2-21,34.7,28.4,24.3,7.0,0.9,-2.0,33,33,32,30.15,29.84,0,0,7,0.00
2013-2-22,38.5,32.1,27.1,10.0,4.1,0.0,33,32,31,30.39,30.15,0,0,2,0.00
2013-2-23,40.1,34.6,29.8,36.0,10.0,3.0,100,40,31,30.36,29.85,13,2,21,0.13
2013-2-24,41.7,36.6,30.9,41.0,30.3,16.0,100,80,53,29.87,29.60,14,5,23,0.45
2013-2-25,40.3,32.5,26.1,16.0,8.7,-2.0,56,39,31,30.27,29.87,7,1,23,0.12
2013-2-26,42.3,33.4,24.6,12.0,5.3,-2.0,34,32,31,30.38,30.14,10,2,16,0.00
2013-2-27,42.3,39.2,35.8,41.0,29.1,7.0,100,73,31,30.14,29.59,17,6,33,0.19
2013-2-28,46.0,39.9,35.2,28.0,16.0,7.0,59,40,30,29.69,29.53,11,1,33,0.00
2013-3-1,47.3,38.2,34.3,18.0,9.5,7.0,32,32,31,29.70,29.54,7,1,16,0.00
2013-3-2,45.7,37.4,33.3,16.0,8.7,5.0,32,32,31,29.75,29.64,12,2,16,0.00
2013-3-3,43.3,36.4,32.9,14.0,7.8,5.0,32,32,31,29.70,29.59,7,2,13,0.00
2013-3-4,45.3,35.4,29.3,16.0,6.8,1.0,33,32,31,29.74,29.63,14,5,21,0.00
2013-3-5,46.9,36.5,28.9,18.0,7.9,1.0,33,32,31,30.07,29.74,12,3,21,0.00
2013-3-6,41.5,36.8,30.7,12.0,8.7,3.0,33,32,31,30.07,29.91,27,8,38,0.00
2013-3-7,35.4,33.5,32.0,36.0,33.1,9.0,100,99,34,29.93,29.87,27,11,38,0.20
2013-3-8,38.7,33.6,31.3,37.0,26.7,9.0,100,81,31,30.06,29.87,28,9,35,0.18
2013-3-9,41.5,35.9,30.2,12.0,7.6,3.0,33,32,31,30.34,30.06,28,7,29,0.00
2013-3-10,45.1,36.7,30.0,16.0,8.2,3.0,33,32,31,30.43,30.32,10,3,28,0.00
2013-3-11,52.9,41.7,32.7,21.0,12.3,5.0,32,31,30,30.38,30.21,11,3,17,0.00
2013-3-12,54.5,48.9,42.1,23.0,19.0,14.0,34,31,30,30.23,29.79,24,9,34,0.60
2013-3-13,51.8,44.8,31.8,23.0,15.1,3.0,33,31,30,29.82,29.75,10,3,34,0.40
2013-3-14,41.2,33.2,25.0,12.0,5.0,-2.0,33,32,31,29.86,29.78,18,4,25,0.00
2013-3-15,40.1,31.2,21.9,10.0,3.3,-4.0,33,32,31,29.94,29.72,12,6,26,0.00
2013-3-16,43.5,35.6,29.7,14.0,6.8,1.0,32,32,31,29.90,29.72,9,3,26,0.00
2013-3-17,43.2,33.6,25.9,14.0,5.2,0.0,33,32,31,30.32,29.89,9,2,18,0.00
2013-3-18,36.9,30.3,21.7,9.0,2.8,-6.0,33,33,32,30.49,30.25,10,4,20,0.00
2013-3-19,45.9,36.5,30.7,46.0,32.3,3.0,100,90,32,30.25,29.55,18,7,31,0.19
2013-3-20,43.2,34.7,28.6,21.0,7.4,1.0,64,34,31,29.86,29.68,15,6,23,0.00
2013-3-21,42.1,32.7,24.1,12.0,4.7,-2.0,33,32,31,29.88,29.62,10,3,23,0.01
2013-3-22,41.2,33.9,27.3,12.0,6.0,0.0,33,32,31,29.78,29.62,11,3,18,0.08
2013-3-23,45.1,36.7,29.1,16.0,7.8,1.0,33,32,31,29.83,29.69,14,6,21,0.00
2013-3-24,48.6,37.3,30.4,18.0,8.6,3.0,33,32,31,29.90,29.78,9,3,21,0.00
2013-3-25,46.9,37.1,28.9,36.0,10.2,1.0,100,36,31,29.79,29.46,20,6,28,0.00
2013-3-26,50.9,40.0,32.0,19.0,11.2,3.0,34,32,30,29.81,29.47,13,4,28,0.00
2013-3-27,55.4,41.5,28.6,23.0,12.0,1.0,32,31,29,29.88,29.80,9,2,18,0.00
2013-3-28,49.8,41.1,35.6,19.0,11.9,7.0,32,31,30,30.05,29.87,12,3,17,0.00
2013-3-29,58.8,45.4,33.4,25.0,15.2,5.0,32,31,28,30.10,30.03,8,2,17,0.00
2013-3-30,55.6,45.0,36.5,23.0,14.6,7.0,32,31,28,30.14,30.07,6,2,12,0.00
2013-3-31,60.3,45.6,29.7,27.0,15.6,1.0,49,31,28,30.20,29.79,16,3,26,0.00
2013-4-1,57.4,47.9,36.0,28.0,20.7,7.0,54,35,29,29.83,29.64,18,7,27,0.09
2013-4-2,45.5,37.3,29.7,16.0,8.3,1.0,32,31,30,30.02,29.83,16,6,27,0.00
2013-4-3,47.8,38.1,30.0,18.0,9.0,1.0,32,31,30,30.20,30.02,16,7,26,0.00
2013-4-4,49.8,39.1,29.7,19.0,10.2,1.0,32,31,29,30.37,30.15,13,5,25,0.00
2013-4-5,51.1,42.0,37.2,19.0,12.1,9.0,32,31,30,30.15,29.72,10,3,23,0.05
2013-4-6,47.3,39.0,30.7,18.0,9.9,1.0,32,31,30,30.39,29.89,15,4,20,0.00
2013-4-7,53.6,41.4,26.1,21.0,11.8,-2.0,33,31,29,30.42,30.10,17,5,27,0.00
2013-4-8,65.3,51.3,43.7,32.0,20.3,14.0,31,30,28,30.16,30.05,19,4,27,0.00
2013-4-9,70.0,53.8,44.2,36.0,22.2,14.0,31,30,27,30.16,29.90,17,5,24,0.00
2013-4-10,56.1,47.7,43.0,43.0,19.2,14.0,100,34,29,30.05,29.90,14,4,23,0.02
2013-4-11,52.9,45.9,42.6,21.0,16.0,12.0,31,31,29,30.16,29.86,14,3,23,0.02
2013-4-12,44.8,41.0,36.7,41.0,22.3,12.0,100,55,31,30.19,29.73,29,7,31,0.40
2013-4-13,51.3,42.0,37.2,28.0,18.6,9.0,68,42,29,29.99,29.73,12,3,31,0.03
2013-4-14,59.5,47.6,39.6,27.0,16.7,10.0,31,30,28,30.25,29.99,8,3,24,0.00
2013-4-15,55.6,45.1,37.0,23.0,14.9,9.0,32,31,29,30.46,30.24,11,3,19,0.00
2013-4-16,61.3,48.8,34.3,28.0,18.3,7.0,32,30,28,30.49,30.22,17,6,31,0.00
2013-4-17,60.3,51.5,37.9,27.0,20.3,9.0,32,30,28,30.40,30.17,15,4,31,0.01
2013-4-18,61.2,48.1,33.1,27.0,17.5,5.0,33,30,27,30.49,30.24,16,4,24,0.00
2013-4-19,70.7,60.0,50.0,36.0,27.4,19.0,31,29,26,30.24,29.82,22,8,37,0.00
2013-4-20,58.6,52.8,43.9,27.0,21.5,14.0,31,30,28,30.23,29.75,20,6,37,0.29
2013-4-21,56.5,44.0,35.6,23.0,14.0,7.0,32,31,27,30.70,30.23,11,4,35,0.00
2013-4-22,54.9,43.5,34.9,23.0,13.4,7.0,32,31,28,30.76,30.58,18,6,24,0.00
2013-4-23,44.8,42.5,40.1,45.0,30.8,0.0,100,70,20,30.58,30.02,15,7,25,0.40
2013-4-24,61.5,48.7,41.5,39.0,24.7,16.0,88,42,28,30.02,29.90,16,7,27,0.13
2013-4-25,62.2,51.6,38.3,28.0,20.1,9.0,32,30,27,30.29,29.97,20,3,27,0.00
2013-4-26,62.6,47.1,35.2,28.0,16.7,7.0,32,30,27,30.46,30.29,12,3,26,0.00
2013-4-27,63.1,48.8,34.7,28.0,18.1,7.0,32,30,27,30.47,30.38,8,2,14,0.00
2013-4-28,70.9,51.6,35.6,34.0,20.0,7.0,32,30,26,30.42,30.32,10,2,16,0.00
2013-4-29,66.9,52.3,41.0,32.0,20.5,12.0,32,30,27,30.35,30.30,9,1,16,0.00
2013-4-30,65.5,49.3,34.5,30.0,18.2,5.0,32,30,26,30.40,30.30,8,2,13,0.00
2013-5-1,65.5,50.4,40.1,30.0,19.5,10.0,32,30,27,30.52,30.40,10,2,14,0.00
2013-5-2,74.5,54.1,37.4,37.0,22.3,9.0,32,30,25,30.50,30.42,12,2,20,0.00
2013-5-3,57.7,48.0,41.4,25.0,17.4,12.0,31,30,28,30.51,30.40,14,4,21,0.00
2013-5-4,61.3,48.9,40.5,28.0,18.3,10.0,32,30,27,30.40,30.33,14,5,22,0.00
2013-5-5,59.9,49.0,41.4,27.0,18.5,12.0,31,30,28,30.36,30.30,14,4,22,0.00
2013-5-6,58.3,49.5,42.6,27.0,18.9,12.0,31,30,28,30.35,30.23,9,2,18,0.00
2013-5-7,72.7,57.3,45.3,37.0,24.9,16.0,31,29,27,30.25,30.19,10,2,14,0.00
2013-5-8,70.2,59.6,54.0,34.0,27.1,23.0,31,29,26,30.24,30.08,11,3,16,0.00
2013-5-9,71.1,59.8,52.5,36.0,26.6,21.0,30,29,26,30.08,29.92,8,2,16,0.00
2013-5-10,80.6,64.6,53.2,43.0,30.3,21.0,30,28,24,30.00,29.92,10,2,18,0.00
2013-5-11,67.5,59.5,54.5,32.0,26.5,23.0,30,29,26,29.99,29.78,18,6,27,0.60
2013-5-12,67.8,59.1,50.5,32.0,25.6,18.0,30,28,26,29.85,29.66,14,4,27,0.21
2013-5-13,69.4,54.0,41.4,32.0,21.4,10.0,31,29,25,30.03,29.85,16,4,23,0.00
2013-5-14,66.6,51.9,43.0,30.0,20.1,12.0,31,29,26,30.09,30.03,13,3,17,0.00
2013-5-15,74.5,55.6,42.8,37.0,23.0,14.0,31,29,25,30.13,29.75,16,4,30,0.00
2013-5-16,77.5,63.0,48.9,41.0,29.1,19.0,31,28,26,29.82,29.73,14,4,22,0.00
2013-5-17,75.9,59.2,47.7,37.0,26.0,18.0,31,29,25,30.25,29.82,10,2,22,0.00
2013-5-18,76.3,58.6,42.4,37.0,25.6,12.0,31,29,24,30.36,30.25,9,2,16,0.00
2013-5-19,80.2,60.5,45.9,41.0,27.2,16.0,31,28,24,30.40,30.27,9,2,16,0.02
2013-5-20,73.0,62.7,54.7,37.0,29.2,23.0,31,28,26,30.27,29.97,12,3,16,0.10
2013-5-21,81.0,66.4,55.8,43.0,31.7,23.0,30,27,25,30.00,29.88,14,1,19,0.01
2013-5-22,76.5,62.0,52.0,39.0,28.1,19.0,30,28,26,29.99,29.93,9,2,21,0.00
2013-5-23,74.3,65.3,58.8,37.0,31.0,27.0,30,28,26,29.99,29.89,18,8,29,0.20
2013-5-24,65.3,60.9,54.0,39.0,28.6,18.0,43,30,20,29.89,29.72,20,4,35,1.23
2013-5-25,57.7,51.6,43.7,25.0,19.9,14.0,31,30,28,29.80,29.71,10,2,35,0.32
2013-5-26,59.0,50.0,43.0,25.0,18.2,12.0,31,29,27,30.14,29.78,11,3,18,0.01
2013-5-27,72.3,58.7,45.0,36.0,25.4,14.0,30,28,25,30.20,30.13,11,3,25,0.00
2013-5-28,76.1,60.4,45.5,37.0,27.0,16.0,31,28,24,30.28,30.20,9,1,25,0.00
2013-5-29,67.8,59.6,54.9,32.0,26.7,23.0,31,29,27,30.25,30.06,18,4,34,0.62
2013-5-30,85.3,70.7,57.6,46.0,35.1,25.0,30,27,24,30.12,30.04,12,2,34,0.11
2013-5-31,95.9,75.4,60.4,52.0,38.0,27.0,28,26,22,30.12,30.01,11,2,21,0.00
2013-6-1,88.0,71.4,60.1,46.0,35.2,27.0,28,26,23,30.03,29.95,13,4,21,0.00
2013-6-2,80.2,68.4,61.5,41.0,32.7,27.0,28,27,24,29.97,29.85,17,6,26,0.00
2013-6-3,67.1,63.0,61.2,32.0,28.9,27.0,29,28,27,29.89,29.81,15,4,27,0.92
2013-6-4,76.5,63.4,52.3,37.0,28.8,19.0,29,27,24,30.08,29.81,10,1,27,0.00
2013-6-5,79.3,61.5,50.0,39.0,27.3,18.0,30,28,23,30.21,30.08,11,2,16,0.00
2013-6-6,81.0,62.6,51.8,41.0,28.3,19.0,30,28,23,30.22,30.10,12,3,16,0.00
2013-6-7,64.2,58.0,55.9,64.0,33.6,23.0,100,45,28,30.11,29.77,17,4,27,0.85
2013-6-8,71.4,64.7,60.8,64.0,41.8,25.0,100,52,25,30.02,29.58,19,6,30,0.15
2013-6-9,84.6,68.6,57.2,43.0,32.1,23.0,28,26,22,30.18,30.02,12,2,30,0.01
2013-6-10,79.3,63.0,57.7,39.0,27.9,23.0,46,27,23,30.22,30.00,11,2,19,0.32
2013-6-11,77.0,65.7,58.1,45.0,34.3,25.0,53,32,24,30.00,29.58,16,5,21,0.36
2013-6-12,76.1,63.8,57.4,36.0,27.9,23.0,27,26,23,29.82,29.60,9,2,17,0.00
2013-6-13,66.9,59.3,53.2,54.0,25.8,19.0,100,30,25,29.86,29.61,15,3,25,0.13
2013-6-14,61.3,55.6,50.9,54.0,35.3,21.0,100,56,25,29.79,29.56,15,4,31,0.40
2013-6-15,84.9,67.5,56.1,43.0,31.1,21.0,27,26,22,29.98,29.78,10,1,31,0.00
2013-6-16,84.9,67.2,55.9,43.0,31.1,23.0,28,26,22,29.99,29.79,16,3,23,0.00
2013-6-17,84.9,70.0,61.2,45.0,33.2,25.0,27,26,23,29.94,29.80,14,2,23,0.00
2013-6-18,84.9,67.5,58.1,43.0,31.6,23.0,28,26,23,29.94,29.87,8,1,21,0.00
2013-6-19,76.1,64.7,56.5,37.0,29.4,23.0,28,27,24,30.17,29.84,9,2,16,0.00
2013-6-20,84.9,65.6,53.2,43.0,29.8,19.0,28,26,22,30.30,30.17,10,2,18,0.00
2013-6-21,83.8,66.9,55.4,43.0,31.0,21.0,28,26,23,30.31,30.25,11,4,18,0.00
2013-6-22,82.9,68.1,58.3,43.0,31.9,23.0,28,26,23,30.28,30.18,10,2,18,0.00
2013-6-23,86.5,71.4,61.2,45.0,34.4,27.0,28,26,23,30.20,30.07,16,4,19,0.00
2013-6-24,87.1,76.4,66.9,46.0,38.4,30.0,27,25,23,30.07,29.91,13,3,19,0.00
2013-6-25,91.0,76.1,66.6,50.0,37.8,30.0,26,25,23,29.94,29.77,9,2,19,0.00
2013-6-26,92.5,76.5,66.4,50.0,38.2,30.0,26,25,22,29.85,29.74,7,1,18,0.00
2013-6-27,73.6,68.9,66.0,36.0,32.1,28.0,26,26,25,29.85,29.77,10,1,18,0.00
2013-6-28,73.2,68.0,66.0,36.0,32.2,30.0,28,27,25,29.77,29.58,16,5,30,0.43
2013-6-29,75.2,68.9,66.2,37.0,32.7,30.0,28,26,24,29.78,29.57,17,5,30,0.05
2013-6-30,76.1,69.3,66.2,37.0,33.0,30.0,27,26,24,29.99,29.77,11,3,21,0.00
2013-7-1,78.3,71.0,66.7,39.0,34.3,32.0,27,26,24,30.14,29.98,14,4,20,0.04
2013-7-2,82.2,72.5,67.8,43.0,35.5,32.0,27,26,24,30.24,30.12,13,4,22,0.00
2013-7-3,87.1,76.0,68.9,45.0,38.1,32.0,27,25,22,30.25,30.19,15,4,22,0.00
2013-7-4,86.2,76.5,69.6,46.0,38.4,34.0,26,25,23,30.24,30.15,11,3,21,0.00
2013-7-5,92.3,78.0,69.6,48.0,39.3,32.0,26,25,22,30.19,30.09,12,3,21,0.00
2013-7-6,93.6,79.3,70.5,50.0,40.2,34.0,26,24,22,30.10,29.98,7,2,18,0.00
2013-7-7,97.2,80.8,70.0,54.0,41.4,32.0,26,24,21,30.03,29.92,12,2,18,0.00
2013-7-8,91.0,78.0,70.0,48.0,39.4,32.0,26,24,22,30.04,29.92,10,2,20,0.00
2013-7-9,81.9,73.1,69.1,43.0,35.4,32.0,26,25,23,30.09,30.02,5,1,20,0.00
2013-7-10,84.6,75.7,69.3,45.0,37.6,32.0,26,25,24,30.06,29.84,13,3,20,0.00
2013-7-11,75.2,72.5,69.6,37.0,34.9,32.0,26,25,24,29.90,29.82,9,2,21,0.18
2013-7-12,73.2,69.3,66.7,36.0,32.5,30.0,27,26,25,30.15,29.89,8,2,21,0.00
2013-7-13,77.4,70.1,66.4,39.0,33.7,30.0,27,26,24,30.29,30.15,7,2,14,0.09
2013-7-14,86.0,76.5,68.0,45.0,38.3,30.0,26,25,23,30.29,30.17,6,1,13,0.00
2013-7-15,95.9,80.2,70.7,52.0,41.1,34.0,26,24,22,30.20,30.09,7,1,13,0.00
2013-7-16,95.2,79.4,70.0,52.0,40.3,32.0,26,24,21,30.16,30.07,5,1,10,0.00
2013-7-17,91.9,76.9,65.7,48.0,38.0,28.0,26,24,21,30.18,30.05,8,2,12,0.00
2013-7-18,96.1,80.2,72.0,52.0,40.9,34.0,26,24,22,30.04,29.95,7,2,14,0.00
2013-7-19,95.7,81.7,73.6,52.0,42.3,36.0,26,24,21,29.97,29.78,14,4,22,0.00
2013-7-20,91.8,81.3,74.3,48.0,41.6,36.0,25,24,22,29.81,29.70,18,4,23,0.00
2013-7-21,79.5,72.7,66.4,41.0,34.9,28.0,26,25,23,29.99,29.81,4,0,23,0.41
2013-7-22,79.2,71.5,65.8,39.0,34.1,28.0,26,25,24,29.99,29.88,10,2,12,0.00
2013-7-23,85.3,76.1,69.4,45.0,38.1,34.0,26,25,23,29.87,29.57,14,4,23,0.00
2013-7-24,94.6,78.7,69.1,52.0,39.7,32.0,26,24,21,29.89,29.58,7,1,23,0.00
2013-7-25,71.4,65.0,61.5,34.0,28.8,27.0,28,26,25,30.03,29.88,16,3,18,0.00
2013-7-26,67.5,65.1,62.1,48.0,35.8,28.0,58,36,25,30.02,29.86,10,2,19,0.31
2013-7-27,84.9,72.2,63.1,43.0,34.9,28.0,27,26,22,30.08,30.00,7,2,19,0.00
2013-7-28,83.5,72.9,67.5,43.0,35.0,30.0,26,25,23,30.04,29.93,12,1,15,0.05
2013-7-29,84.2,74.0,66.0,43.0,36.3,30.0,27,25,22,30.05,29.99,9,2,15,0.00
2013-7-30,86.5,73.4,64.9,45.0,35.5,28.0,27,25,22,30.10,30.01,6,1,15,0.00
2013-7-31,88.9,72.2,62.8,45.0,34.3,27.0,27,25,21,30.12,30.06,6,1,14,0.00
2013-8-1,87.3,71.3,63.1,45.0,33.6,27.0,26,25,22,30.06,29.89,10,2,14,0.00
2013-8-2,80.2,70.4,63.7,41.0,33.3,28.0,27,26,23,29.90,29.80,14,2,19,0.03
2013-8-3,72.9,68.8,65.1,36.0,32.0,28.0,27,26,25,29.89,29.81,10,2,19,0.00
2013-8-4,84.2,70.7,61.2,43.0,33.5,25.0,27,26,22,29.86,29.77,7,1,17,0.00
2013-8-5,81.7,68.1,59.2,41.0,31.5,23.0,27,26,22,30.02,29.86,9,2,16,0.00
2013-8-6,85.5,66.9,54.9,43.0,30.4,21.0,27,26,22,30.16,30.02,7,1,16,0.00
2013-8-7,85.5,66.6,54.5,43.0,30.5,21.0,28,26,22,30.19,30.13,10,2,15,0.00
2013-8-8,79.9,70.0,60.8,41.0,32.9,25.0,27,25,24,30.14,30.05,11,3,19,0.00
2013-8-9,73.8,71.5,69.3,36.0,34.9,32.0,26,26,25,30.08,29.81,17,6,29,0.00
2013-8-10,88.0,75.2,66.2,45.0,37.2,28.0,26,25,22,30.00,29.80,9,2,16,0.00
2013-8-11,86.5,70.8,61.7,43.0,33.2,27.0,26,25,22,30.07,29.99,8,1,16,0.00
2013-8-12,76.1,68.1,61.3,37.0,31.2,25.0,26,25,24,30.04,29.92,9,1,15,0.00
2013-8-13,69.8,67.0,64.6,32.0,30.6,28.0,27,26,25,29.92,29.68,7,1,15,0.11
2013-8-14,74.3,67.5,61.9,36.0,31.0,27.0,27,26,24,29.94,29.67,13,1,16,0.00
2013-8-15,83.3,67.8,59.0,41.0,31.0,23.0,27,25,22,30.13,29.94,11,1,16,0.01
2013-8-16,86.2,69.4,58.8,43.0,32.3,23.0,27,25,21,30.21,30.10,10,2,16,0.00
2013-8-17,85.3,69.8,59.4,45.0,32.6,23.0,27,25,22,30.26,30.18,6,1,15,0.00
2013-8-18,79.3,66.5,58.6,39.0,30.1,23.0,27,26,23,30.27,30.06,6,1,11,0.01
2013-8-19,79.7,68.6,55.4,41.0,31.5,21.0,27,25,23,30.07,29.94,7,1,13,0.00
2013-8-20,85.1,73.7,64.8,45.0,35.8,28.0,26,25,23,30.10,29.97,5,1,13,0.00
2013-8-21,88.3,74.1,62.6,46.0,36.1,27.0,26,25,22,30.15,30.04,6,1,13,0.00
2013-8-22,82.0,73.1,67.5,43.0,35.3,32.0,27,25,23,30.04,29.84,11,3,16,0.00
2013-8-23,79.0,71.1,63.5,39.0,33.6,27.0,26,25,24,30.08,29.81,10,2,20,0.00
2013-8-24,80.6,66.4,54.0,39.0,29.8,19.0,27,26,23,30.32,30.07,10,2,20,0.00
2013-8-25,83.5,67.0,52.0,43.0,30.2,18.0,28,26,22,30.36,30.21,7,1,16,0.00
2013-8-26,76.8,69.4,61.9,37.0,32.2,27.0,26,25,24,30.21,29.90,15,4,20,0.00
2013-8-27,71.8,68.1,65.8,34.0,31.4,28.0,27,26,25,29.90,29.82,10,1,20,0.40
2013-8-28,76.5,69.6,64.9,39.0,32.3,28.0,27,25,24,29.92,29.83,5,0,14,0.00
2013-8-29,69.1,65.0,59.4,32.0,28.8,23.0,27,26,25,30.02,29.91,8,2,14,0.00
2013-8-30,73.9,66.4,57.9,36.0,29.9,23.0,27,26,24,30.00,29.86,8,2,16,0.00
2013-8-31,79.7,70.8,65.8,41.0,33.8,30.0,27,26,24,29.87,29.83,15,4,22,0.00
2013-9-1,79.7,72.6,68.5,41.0,35.1,32.0,26,25,24,29.90,29.83,12,4,23,0.00
2013-9-2,82.4,73.6,69.6,43.0,35.8,32.0,26,25,24,29.87,29.73,11,3,18,0.00
2013-9-3,82.2,71.5,65.8,43.0,34.3,30.0,27,25,23,29.80,29.70,6,0,18,0.00
2013-9-4,77.0,68.4,61.5,39.0,31.7,27.0,27,26,24,29.91,29.78,7,1,17,0.00
2013-9-5,80.1,64.8,54.7,41.0,28.7,21.0,27,26,24,30.09,29.86,6,1,17,0.00
2013-9-6,70.7,60.3,52.3,34.0,25.0,18.0,28,26,25,30.20,30.09,7,1,14,0.00
2013-9-7,73.0,62.4,51.1,36.0,26.9,18.0,28,26,25,30.09,29.87,11,2,16,0.00
2013-9-8,78.3,67.2,57.4,39.0,30.8,23.0,27,26,24,30.04,29.73,7,3,23,0.00
2013-9-9,68.2,59.9,52.0,32.0,24.7,18.0,27,27,25,30.22,30.05,9,1,23,0.00
2013-9-10,74.3,65.2,55.4,37.0,28.8,21.0,27,26,24,30.18,30.05,15,3,24,0.00
2013-9-11,84.2,74.1,67.3,45.0,36.3,30.0,26,25,24,30.10,30.00,13,3,24,0.00
2013-9-12,79.9,72.4,67.6,41.0,34.8,30.0,26,25,24,30.00,29.71,14,5,25,0.00
2013-9-13,75.7,69.4,63.1,37.0,32.6,27.0,26,26,24,29.71,29.56,9,2,25,0.11
2013-9-14,71.2,64.1,59.4,34.0,28.1,23.0,27,26,25,30.02,29.71,8,1,16,0.00
2013-9-15,69.4,60.8,54.1,32.0,25.5,19.0,27,26,25,30.15,30.02,6,1,14,0.00
2013-9-16,64.4,59.1,53.1,28.0,24.1,19.0,28,27,25,30.16,30.01,10,1,19,0.00
2013-9-17,59.9,53.2,44.6,25.0,19.4,12.0,29,27,26,30.37,30.16,10,3,21,0.00
2013-9-18,69.4,56.2,44.1,32.0,22.0,12.0,30,27,25,30.31,30.15,7,1,21,0.00
2013-9-19,74.1,62.1,53.4,36.0,26.6,19.0,28,26,24,30.15,30.03,8,1,14,0.00
2013-9-20,76.5,63.6,55.0,39.0,28.2,21.0,29,27,25,30.08,30.00,6,1,14,0.00
2013-9-21,75.4,65.5,54.0,37.0,29.5,19.0,28,26,24,30.03,29.75,14,4,23,0.00
2013-9-22,72.0,66.5,56.5,34.0,30.0,21.0,27,26,25,29.78,29.64,12,4,25,0.00
2013-9-23,63.3,55.9,50.4,28.0,21.7,18.0,28,27,26,29.97,29.77,10,2,25,0.00
2013-9-24,63.9,54.9,48.2,28.0,21.1,16.0,28,27,26,29.98,29.81,9,2,20,0.00
2013-9-25,67.5,56.4,46.4,30.0,22.3,14.0,29,27,25,29.95,29.88,7,1,16,0.00
2013-9-26,63.1,57.0,50.9,27.0,22.4,18.0,28,27,26,30.08,29.95,8,1,17,0.00
2013-9-27,64.2,57.8,51.3,28.0,23.1,18.0,28,27,26,30.23,30.08,13,1,18,0.00
2013-9-28,71.1,58.1,47.5,34.0,23.6,14.0,29,27,25,30.30,30.23,8,1,14,0.00
2013-9-29,65.3,57.7,48.7,28.0,23.2,16.0,29,27,25,30.23,30.07,7,2,14,0.00
2013-9-30,68.7,60.1,51.3,32.0,24.9,18.0,28,27,25,30.07,29.93,7,1,13,0.00
2013-10-1,72.7,60.0,49.1,36.0,25.1,16.0,29,27,25,29.93,29.84,5,0,13,0.00
2013-10-2,76.3,65.2,56.1,37.0,29.1,21.0,28,26,25,29.93,29.82,13,1,21,0.00
2013-10-3,75.9,64.3,56.3,37.0,28.3,21.0,27,26,25,30.06,29.93,6,1,21,0.00
2013-10-4,73.9,62.1,54.5,36.0,26.8,21.0,28,26,24,30.05,30.00,4,0,12,0.00
2013-10-5,67.8,61.2,57.6,30.0,26.0,23.0,28,26,25,30.08,30.02,4,0,10,0.13
2013-10-6,63.3,59.5,54.3,27.0,24.8,19.0,28,27,26,30.17,30.07,10,3,17,0.00
2013-10-7,73.8,68.0,62.1,36.0,31.6,27.0,27,26,24,30.09,29.85,16,6,25,0.12
2013-10-8,66.0,59.4,54.1,30.0,24.3,19.0,27,27,25,30.30,29.87,9,2,25,0.03
2013-10-9,62.6,56.4,53.8,27.0,21.8,19.0,28,27,26,30.40,30.30,13,4,19,0.00
2013-10-10,66.6,58.7,54.0,30.0,23.8,19.0,27,27,26,30.30,30.10,10,3,19,0.00
2013-10-11,67.8,60.3,56.1,30.0,25.4,21.0,27,27,25,30.10,30.05,8,2,16,0.00
2013-10-12,63.7,58.1,54.3,28.0,23.5,19.0,27,27,26,30.32,30.08,16,4,23,0.00
2013-10-13,61.5,55.0,50.9,27.0,20.6,18.0,28,27,26,30.40,30.30,13,3,23,0.00
2013-10-14,60.8,51.1,42.6,25.0,17.6,10.0,29,27,26,30.37,30.25,7,1,19,0.00
2013-10-15,63.1,53.1,44.2,27.0,19.4,12.0,29,27,26,30.25,30.15,7,2,12,0.00
2013-10-16,61.5,57.1,52.3,27.0,22.6,18.0,28,27,26,30.15,29.89,10,1,14,0.00
2013-10-17,67.5,61.0,56.1,30.0,25.6,21.0,27,26,25,29.90,29.74,10,1,14,0.00
2013-10-18,68.5,61.2,51.3,32.0,26.0,18.0,28,26,25,29.89,29.64,10,2,20,0.00
2013-10-19,63.5,55.7,48.7,27.0,21.2,16.0,28,27,25,29.99,29.75,13,1,20,0.00
2013-10-20,61.9,55.7,44.1,27.0,21.4,12.0,29,27,26,30.01,29.70,6,1,16,0.00
2013-10-21,63.7,51.3,41.0,28.0,17.9,10.0,30,28,26,30.13,30.01,6,1,16,0.00
2013-10-22,66.4,55.4,45.1,30.0,21.1,12.0,29,27,25,30.03,29.73,6,1,15,0.00
2013-10-23,54.0,48.1,41.7,19.0,15.4,10.0,30,28,27,29.81,29.60,7,1,16,0.04
2013-10-24,52.3,47.1,41.7,19.0,14.4,10.0,30,28,27,29.91,29.64,10,3,17,0.00
2013-10-25,52.9,46.2,41.4,19.0,13.5,10.0,29,28,27,30.18,29.91,9,2,17,0.00
2013-10-26,56.5,48.0,35.8,23.0,15.2,5.0,30,28,27,30.21,29.90,16,4,27,0.00
2013-10-27,57.0,51.8,46.0,23.0,18.2,14.0,28,27,26,30.07,29.84,9,2,27,0.00
2013-10-28,56.8,48.8,37.0,23.0,15.8,7.0,30,28,26,30.32,30.07,11,2,23,0.00
2013-10-29,53.4,46.1,40.8,19.0,13.7,9.0,29,28,27,30.41,30.32,8,1,19,0.00
2013-10-30,58.1,46.8,35.8,23.0,14.0,5.0,29,28,26,30.38,30.22,8,1,15,0.00
2013-10-31,63.9,55.7,43.3,28.0,21.6,10.0,29,27,26,30.26,29.89,14,4,26,0.00
2013-11-1,68.5,62.5,59.0,32.0,26.9,23.0,27,26,25,29.89,29.58,25,8,36,0.00
2013-11-2,60.4,56.4,52.9,25.0,21.6,18.0,27,27,25,29.71,29.60,7,0,36,0.00
2013-11-3,54.3,45.6,37.6,19.0,13.2,7.0,29,28,27,30.35,29.69,10,3,21,0.00
2013-11-4,44.6,38.6,34.9,12.0,7.7,5.0,30,29,28,30.70,30.35,8,3,21,0.00
2013-11-5,49.6,41.2,35.4,18.0,10.1,5.0,30,29,27,30.71,30.53,6,1,19,0.00
2013-11-6,58.6,48.5,37.4,23.0,15.8,7.0,30,28,26,30.54,30.10,9,2,14,0.00
2013-11-7,61.5,55.3,45.0,28.0,21.8,12.0,30,28,26,30.10,29.71,16,4,24,0.43
2013-11-8,50.2,43.3,38.1,18.0,11.2,7.0,29,28,27,30.11,29.82,12,4,24,0.00
2013-11-9,45.9,40.5,36.5,14.0,9.2,5.0,30,29,28,30.25,30.07,14,3,21,0.00
2013-11-10,57.4,49.2,41.2,21.0,15.7,9.0,29,27,26,30.07,29.74,16,3,19,0.02
2013-11-11,51.3,45.7,40.5,18.0,13.2,9.0,29,28,27,30.11,29.88,16,5,25,0.00
2013-11-12,52.0,38.5,30.0,18.0,7.6,-6.0,42,29,20,30.18,29.91,12,4,25,0.00
2013-11-13,36.9,31.6,27.0,7.0,2.3,-2.0,31,30,29,30.29,30.17,12,4,24,0.00
2013-11-14,49.1,42.6,32.0,16.0,10.9,3.0,31,29,27,30.23,30.10,10,4,24,0.00
2013-11-15,59.7,49.7,44.1,25.0,16.4,12.0,29,28,26,30.24,30.16,16,3,22,0.00
2013-11-16,58.3,47.3,37.8,23.0,14.3,7.0,30,28,26,30.33,30.22,9,0,20,0.00
2013-11-17,58.6,50.8,37.6,25.0,18.2,7.0,30,28,26,30.34,29.89,12,3,18,0.01
2013-11-18,61.5,56.4,48.4,28.0,22.8,14.0,29,27,25,29.89,29.61,16,6,34,0.21
2013-11-19,48.7,41.7,32.4,16.0,9.4,3.0,30,28,27,30.27,29.67,16,5,34,0.01
2013-11-20,40.6,33.9,28.8,9.0,3.6,0.0,31,29,28,30.60,30.27,9,3,24,0.00
2013-11-21,46.4,37.6,27.9,14.0,7.0,0.0,31,29,27,30.65,30.42,7,1,18,0.00
2013-11-22,52.0,47.2,38.7,19.0,14.6,7.0,29,28,27,30.42,29.84,8,1,17,0.03
2013-11-23,49.1,43.1,32.9,16.0,10.9,3.0,30,28,27,29.91,29.80,13,5,26,0.00
2013-11-24,32.7,26.3,22.8,3.0,-2.1,-6.0,31,31,30,30.19,29.81,23,10,36,0.00
2013-11-25,33.1,25.2,19.8,3.0,-3.0,-6.0,32,31,29,30.41,30.19,15,5,36,0.00
2013-11-26,46.8,42.0,35.1,16.0,10.0,5.0,30,28,27,30.37,30.05,15,3,16,0.00
2013-11-27,60.8,52.8,39.7,52.0,23.4,7.0,81,33,27,30.04,29.17,35,9,44,0.54
2013-11-28,39.6,33.0,26.6,7.0,1.7,-2.0,30,28,27,30.44,29.51,16,6,44,0.01
2013-11-29,35.1,29.7,25.5,3.0,-0.4,-4.0,31,29,28,30.72,30.45,9,3,16,0.00
2013-11-30,36.0,29.2,22.8,3.0,-1.0,-6.0,31,29,27,30.80,30.46,7,2,16,0.00
2013-12-1,48.4,43.4,34.3,16.0,10.7,3.0,29,28,26,30.46,29.97,13,4,18,0.00
2013-12-2,44.6,40.5,37.9,12.0,8.4,7.0,29,28,27,30.00,29.90,6,1,18,0.00
2013-12-3,47.5,39.8,33.4,14.0,8.2,3.0,30,28,27,29.95,29.85,7,2,13,0.00
2013-12-4,44.6,36.0,28.9,12.0,4.8,0.0,31,29,27,30.22,29.95,6,1,14,0.00
2013-12-5,54.3,46.5,30.9,19.0,13.9,1.0,31,28,26,30.24,29.97,12,4,18,0.00
2013-12-6,56.7,50.1,37.0,23.0,16.7,7.0,31,27,26,30.12,29.93,16,4,20,0.01
2013-12-7,42.1,35.6,30.9,21.0,6.8,-4.0,58,32,20,30.45,30.06,10,4,20,0.05
2013-12-8,35.1,30.9,27.0,5.0,0.9,-2.0,30,30,28,30.60,30.45,9,2,16,0.00
2013-12-9,44.8,38.6,31.5,23.0,11.4,1.0,54,35,29,30.46,29.89,17,4,28,0.09
2013-12-10,37.2,33.3,28.4,7.0,3.6,0.0,31,30,28,30.04,29.83,16,2,28,0.12
2013-12-11,33.4,29.6,26.4,3.0,0.0,-2.0,31,30,29,30.30,30.04,11,4,24,0.00
2013-12-12,29.1,23.9,19.0,-2.0,-4.6,-6.0,31,30,29,30.30,30.13,15,4,20,0.00
2013-12-13,32.2,26.6,21.4,1.0,-2.5,-6.0,31,30,29,30.35,30.06,14,5,27,0.00
2013-12-14,31.1,23.4,16.7,1.0,-3.9,-6.0,31,31,30,30.58,30.10,17,5,27,0.00
2013-12-15,49.3,36.1,29.1,39.0,14.2,-6.0,100,45,22,30.10,29.36,16,7,29,0.35
2013-12-16,32.0,28.0,23.2,1.0,-1.9,-6.0,31,29,28,30.23,29.78,14,5,29,0.00
2013-12-17,37.9,26.2,17.2,9.0,-1.8,-6.0,31,31,29,30.30,29.86,16,5,24,0.03
2013-12-18,33.3,29.0,23.0,3.0,-0.9,-6.0,31,29,28,30.12,29.81,7,0,21,0.00
2013-12-19,45.7,36.5,28.2,12.0,5.2,-2.0,30,28,27,30.18,30.03,0,0,13,0.00
2013-12-20,52.9,42.4,31.1,18.0,9.4,0.0,29,27,26,30.18,30.00,0,0,0,0.00
2013-12-21,57.4,52.2,47.5,21.0,17.6,14.0,27,26,25,30.04,29.94,0,0,0,0.00
2013-12-22,60.3,56.3,52.7,25.0,21.1,18.0,27,26,25,30.02,29.89,0,0,0,0.00
2013-12-23,57.0,45.2,36.5,21.0,12.5,5.0,31,28,25,30.12,29.97,0,0,0,0.08
2013-12-24,38.7,33.1,28.2,7.0,1.8,-2.0,29,28,27,30.25,30.04,7,1,18,0.05
2013-12-25,28.2,21.7,16.9,-2.0,-5.5,-6.0,31,30,28,30.61,30.24,16,3,22,0.00
2013-12-26,39.7,32.0,19.0,9.0,1.7,-6.0,31,29,28,30.55,30.11,11,3,22,0.02
2013-12-27,36.7,31.2,28.6,5.0,0.4,-2.0,30,29,27,30.35,30.27,8,3,18,0.00
2013-12-28,50.2,36.8,24.8,16.0,5.7,-4.0,31,29,27,30.32,30.08,16,4,35,0.00
2013-12-29,54.1,43.1,35.6,37.0,14.8,5.0,60,34,27,30.13,29.38,16,4,36,0.31
2013-12-30,45.1,35.5,24.1,14.0,5.4,-6.0,38,30,27,30.15,29.53,10,4,36,0.00
2013-12-31,27.7,23.7,19.8,-2.0,-5.0,-6.0,31,30,28,30.19,30.09,14,4,19,0.00
2014-1-1,30.4,25.3,21.6,0.0,-4.6,-6.0,31,29,28,30.42,30.19,13,4,24,0.00
2014-1-2,30.2,27.0,25.0,1.0,-1.6,-4.0,32,31,29,30.37,29.67,0,0,24,0.00